This is the latest recevied weather packets stored in our database for station/object K1JO. If no packets are shown the sender has not sent any weather packets the latest 10 day(s).
| Time | Temp. | Humidity | Pressure | Rain* | Wind** | Luminosity | Snow |
|---|---|---|---|---|---|---|---|
| 1777817946 | 5.56° C | 99% | 1001.4 hPa | 0 mm | - | 88 W/m² | - |
| 1777817643 | 5.56° C | 99% | 1001.4 hPa | 1.78 mm | - | 91 W/m² | - |
| 1777817340 | 5.56° C | 99% | 1001.4 hPa | 1.78 mm | - | 92 W/m² | - |
| 1777817037 | 5.56° C | 99% | 1001.5 hPa | 0 mm | - | 79 W/m² | - |
| 1777816732 | 6.11° C | 99% | 1001.5 hPa | 1.78 mm | - | 88 W/m² | - |
| 1777816430 | 6.11° C | 99% | 1001.4 hPa | 1.78 mm | - | 100 W/m² | - |
| 1777816128 | 6.11° C | 99% | 1001.5 hPa | 0 mm | - | 56 W/m² | - |
| 1777815826 | 6.11° C | 99% | 1002 hPa | 1.27 mm | - | 73 W/m² | - |
| 1777815522 | 6.11° C | 99% | 1002 hPa | 1.27 mm | - | 84 W/m² | - |
| 1777815220 | 6.11° C | 99% | 1001.7 hPa | 1.78 mm | - | 103 W/m² | - |
| 1777814916 | 6.11° C | 99% | 1001.9 hPa | 1.78 mm | - | 77 W/m² | - |
| 1777814613 | 6.11° C | 99% | 1002 hPa | 1.27 mm | - | 63 W/m² | - |
| 1777814310 | 5.56° C | 99% | 1002.3 hPa | 3.05 mm | - | 65 W/m² | - |
| 1777814006 | 5.56° C | 99% | 1002.4 hPa | 3.05 mm | - | 60 W/m² | - |
| 1777813704 | 6.11° C | 99% | 1002.4 hPa | 1.27 mm | - | 63 W/m² | - |
| 1777813401 | 6.11° C | 99% | 1002.3 hPa | 1.78 mm | - | 63 W/m² | - |
| 1777813098 | 6.11° C | 99% | 1002.6 hPa | 1.78 mm | - | 66 W/m² | - |
| 1777812796 | 6.11° C | 99% | 1002.7 hPa | 1.27 mm | - | 60 W/m² | - |
| 1777812492 | 5.56° C | 99% | 1002.6 hPa | 3.05 mm | - | 74 W/m² | - |
| 1777812190 | 5.56° C | 99% | 1002.7 hPa | 1.78 mm | - | 70 W/m² | - |
| 1777811888 | 5.56° C | 99% | 1002.8 hPa | 1.27 mm | - | 90 W/m² | - |
| 1777811587 | 5.56° C | 99% | 1002.8 hPa | 1.27 mm | - | 83 W/m² | - |
| 1777811282 | 5.56° C | 99% | 1002.8 hPa | 1.78 mm | - | 78 W/m² | - |
| 1777810980 | 5.56° C | 99% | 1002.8 hPa | 1.78 mm | - | 62 W/m² | - |
| 1777810676 | 5.56° C | 99% | 1003 hPa | 1.27 mm | - | 69 W/m² | - |
* Rain latest hour (hover to see other rain measurements)
** Current wind speed in m/s (hover to see current wind gust speed)